Time,TemperatureF,DewpointF,PressureIn,WindDirection,WindDirectionDegrees,WindSpeedMPH,WindSpeedGustMPH,Humidity,HourlyPrecipIn,Conditions,Clouds,dailyrainin,SoftwareType,DateUTC
2013-09-15 00:12:00,64.0,61.0,29.74,SE,127,0.0,0.0,91,0.00,,,0.02,,2013-09-15 06:12:00,
2013-09-15 00:21:00,64.0,61.0,29.74,SE,127,0.0,0.0,91,0.00,,,0.02,,2013-09-15 06:21:00,
2013-09-15 00:42:00,64.0,62.0,29.74,SE,127,0.0,0.0,92,0.00,,,0.02,,2013-09-15 06:42:00,
2013-09-15 00:52:00,64.0,62.0,29.74,SE,127,0.0,0.0,93,0.00,,,0.02,,2013-09-15 06:52:00,
2013-09-15 01:11:00,64.0,62.0,29.74,SE,127,0.0,0.0,94,0.00,,,0.02,,2013-09-15 07:11:00,
2013-09-15 01:22:00,64.0,62.0,29.75,SE,125,0.0,0.0,94,0.00,,,0.02,,2013-09-15 07:22:00,
2013-09-15 01:42:00,64.0,62.0,29.75,SE,126,0.0,0.0,94,0.00,,,0.02,,2013-09-15 07:42:00,
2013-09-15 01:52:00,63.0,61.0,29.74,SE,125,0.0,0.0,94,0.00,,,0.02,,2013-09-15 07:52:00,
2013-09-15 02:11:00,63.0,61.0,29.75,SE,125,0.0,0.0,94,0.00,,,0.02,,2013-09-15 08:11:00,
2013-09-15 02:22:00,63.0,61.0,29.74,NE,39,0.0,0.0,93,0.00,,,0.02,,2013-09-15 08:22:00,
2013-09-15 02:43:00,63.0,61.0,29.74,NE,40,0.0,1.0,93,0.00,,,0.02,,2013-09-15 08:43:00,
2013-09-15 02:52:00,63.0,61.0,29.74,NE,39,0.0,1.0,94,0.00,,,0.02,,2013-09-15 08:52:00,
2013-09-15 03:12:00,63.0,61.0,29.73,NE,40,0.0,0.0,93,0.00,,,0.02,,2013-09-15 09:12:00,
2013-09-15 03:22:00,63.0,61.0,29.73,NNW,348,0.0,1.0,93,0.00,,,0.02,,2013-09-15 09:22:00,
2013-09-15 03:43:00,63.0,60.0,29.74,NNE,23,0.0,2.0,91,0.00,,,0.02,,2013-09-15 09:43:00,
2013-09-15 03:53:00,63.0,60.0,29.74,NNE,23,0.0,0.0,91,0.00,,,0.02,,2013-09-15 09:53:00,
2013-09-15 04:13:00,62.0,60.0,29.74,NNE,23,0.0,0.0,92,0.00,,,0.02,,2013-09-15 10:13:00,
2013-09-15 04:23:00,63.0,60.0,29.74,NNE,15,0.0,6.0,90,0.00,,,0.02,,2013-09-15 10:23:00,
2013-09-15 04:43:00,64.0,60.0,29.75,NNW,342,1.0,4.0,86,0.00,,,0.02,,2013-09-15 10:43:00,
2013-09-15 04:52:00,64.0,59.0,29.75,NNE,21,0.0,5.0,85,0.00,,,0.02,,2013-09-15 10:52:00,
2013-09-15 05:12:00,64.0,60.0,29.75,NNE,18,0.0,2.0,87,0.00,,,0.02,,2013-09-15 11:12:00,
2013-09-15 05:22:00,64.0,60.0,29.75,NNE,32,0.0,2.0,87,0.00,,,0.02,,2013-09-15 11:22:00,
2013-09-15 05:42:00,64.0,59.0,29.76,North,11,1.0,3.0,85,0.00,,,0.01,,2013-09-15 11:42:00,
2013-09-15 05:52:00,64.0,59.0,29.77,NE,38,0.0,2.0,85,0.00,,,0.01,,2013-09-15 11:52:00,
2013-09-15 06:12:00,64.0,59.0,29.77,North,11,0.0,1.0,85,0.00,,,0.01,,2013-09-15 12:12:00,
2013-09-15 06:21:00,63.0,59.0,29.78,North,356,0.0,1.0,86,0.00,,,0.01,,2013-09-15 12:21:00,
2013-09-15 06:42:00,63.0,58.0,29.78,NNW,336,0.0,5.0,83,0.00,,,0.00,,2013-09-15 12:42:00,
2013-09-15 06:52:00,64.0,58.0,29.79,ENE,72,0.0,3.0,82,0.00,,,0.00,,2013-09-15 12:52:00,
2013-09-15 07:11:00,64.0,58.0,29.80,North,7,0.0,3.0,81,0.00,,,0.00,,2013-09-15 13:11:00,
2013-09-15 07:21:00,64.0,57.0,29.80,NE,54,0.0,3.0,78,0.00,,,0.00,,2013-09-15 13:21:00,
2013-09-15 07:52:00,64.0,57.0,29.82,North,356,1.0,5.0,77,0.00,,,0.00,,2013-09-15 13:52:00,
2013-09-15 08:12:00,65.0,57.0,29.83,NNW,336,2.0,6.0,76,0.00,,,0.00,,2013-09-15 14:12:00,
2013-09-15 08:22:00,66.0,58.0,29.83,NE,54,1.0,7.0,75,0.00,,,0.00,,2013-09-15 14:22:00,
2013-09-15 13:22:00,84.0,63.0,29.81,SE,125,0.0,4.0,50,0.00,,,0.00,,2013-09-15 19:22:00,
2013-09-15 13:52:00,85.0,64.0,29.80,SSE,160,1.0,4.0,50,0.00,,,0.00,,2013-09-15 19:52:00,
2013-09-15 14:11:00,85.0,61.0,29.80,East,100,2.0,7.0,44,0.00,,,0.00,,2013-09-15 20:11:00,
2013-09-15 14:22:00,86.0,60.0,29.79,SSE,167,2.0,7.0,42,0.00,,,0.00,,2013-09-15 20:22:00,
2013-09-15 14:42:00,86.0,65.0,29.79,SSW,193,0.0,4.0,49,0.00,,,0.00,,2013-09-15 20:42:00,
2013-09-15 14:53:00,85.0,61.0,29.78,East,83,1.0,5.0,45,0.00,,,0.00,,2013-09-15 20:53:00,
2013-09-15 15:11:00,86.0,63.0,29.77,SW,225,1.0,5.0,47,0.00,,,0.00,,2013-09-15 21:11:00,
2013-09-15 15:21:00,86.0,62.0,29.76,WSW,251,1.0,5.0,45,0.00,,,0.00,,2013-09-15 21:21:00,
2013-09-15 15:44:00,86.0,63.0,29.76,SSW,194,2.0,4.0,46,0.00,,,0.00,,2013-09-15 21:44:00,
2013-09-15 15:54:00,86.0,62.0,29.75,SW,236,0.0,3.0,45,0.00,,,0.00,,2013-09-15 21:54:00,
2013-09-15 16:14:00,86.0,62.0,29.75,SSE,161,1.0,6.0,44,0.00,,,0.00,,2013-09-15 22:14:00,
2013-09-15 16:23:00,86.0,66.0,29.74,SSE,168,0.0,3.0,51,0.00,,,0.00,,2013-09-15 22:23:00,
2013-09-15 16:44:00,85.0,63.0,29.74,South,191,1.0,7.0,48,0.00,,,0.00,,2013-09-15 22:44:00,
2013-09-15 16:53:00,86.0,62.0,29.74,SSE,162,2.0,6.0,44,0.00,,,0.00,,2013-09-15 22:53:00,
2013-09-15 17:12:00,85.0,62.0,29.74,SE,124,1.0,5.0,46,0.00,,,0.00,,2013-09-15 23:12:00,
2013-09-15 17:22:00,85.0,64.0,29.73,SW,228,0.0,6.0,49,0.00,,,0.00,,2013-09-15 23:22:00,
2013-09-15 17:42:00,84.0,62.0,29.74,North,4,2.0,4.0,48,0.00,,,0.00,,2013-09-15 23:42:00,
2013-09-15 17:52:00,82.0,61.0,29.74,SSW,195,1.0,4.0,50,0.00,,,0.00,,2013-09-15 23:52:00,
2013-09-15 18:11:00,81.0,61.0,29.74,South,170,2.0,6.0,51,0.00,,,0.00,,2013-09-16 00:11:00,
2013-09-15 18:22:00,81.0,62.0,29.75,ESE,105,1.0,4.0,52,0.00,,,0.00,,2013-09-16 00:22:00,
2013-09-15 18:42:00,79.0,61.0,29.75,SW,229,1.0,3.0,55,0.00,,,0.00,,2013-09-16 00:42:00,
2013-09-15 18:52:00,78.0,61.0,29.76,ESE,123,0.0,3.0,56,0.00,,,0.00,,2013-09-16 00:52:00,
2013-09-15 19:12:00,77.0,62.0,29.76,ESE,121,0.0,2.0,59,0.00,,,0.00,,2013-09-16 01:12:00,
2013-09-15 19:21:00,76.0,62.0,29.76,SW,217,0.0,1.0,62,0.00,,,0.00,,2013-09-16 01:21:00,
2013-09-15 19:42:00,76.0,59.0,29.77,SSE,157,0.0,3.0,56,0.00,,,0.00,,2013-09-16 01:42:00,
2013-09-15 19:52:00,75.0,61.0,29.77,SW,236,0.0,1.0,61,0.00,,,0.00,,2013-09-16 01:52:00,
2013-09-15 20:12:00,73.0,61.0,29.77,WSW,238,0.0,1.0,67,0.00,,,0.00,,2013-09-16 02:12:00,
2013-09-15 20:22:00,72.0,61.0,29.78,SW,236,0.0,0.0,68,0.00,,,0.00,,2013-09-16 02:22:00,
2013-09-15 20:42:00,71.0,60.0,29.79,SW,236,0.0,0.0,69,0.00,,,0.00,,2013-09-16 02:42:00,
2013-09-15 20:52:00,70.0,61.0,29.80,SW,236,0.0,0.0,73,0.00,,,0.00,,2013-09-16 02:52:00,
2013-09-15 21:11:00,70.0,62.0,29.80,WSW,238,0.0,0.0,77,0.00,,,0.00,,2013-09-16 03:11:00,
2013-09-15 21:22:00,69.0,63.0,29.80,SW,236,0.0,0.0,80,0.00,,,0.00,,2013-09-16 03:22:00,
2013-09-15 21:45:00,68.0,62.0,29.81,SW,236,0.0,0.0,82,0.00,,,0.00,,2013-09-16 03:45:00,
2013-09-15 21:54:00,68.0,62.0,29.82,SW,236,0.0,1.0,82,0.00,,,0.00,,2013-09-16 03:54:00,
2013-09-15 22:13:00,68.0,62.0,29.82,SW,236,0.0,0.0,82,0.00,,,0.00,,2013-09-16 04:13:00,
2013-09-15 22:24:00,69.0,63.0,29.82,WSW,239,0.0,0.0,82,0.00,,,0.00,,2013-09-16 04:24:00,
2013-09-15 22:43:00,68.0,62.0,29.82,WSW,239,0.0,0.0,82,0.00,,,0.00,,2013-09-16 04:43:00,
2013-09-15 22:54:00,68.0,63.0,29.82,WSW,239,0.0,0.0,83,0.00,,,0.00,,2013-09-16 04:54:00,
2013-09-15 23:13:00,67.0,62.0,29.83,WSW,239,0.0,0.0,85,0.00,,,0.00,,2013-09-16 05:13:00,
2013-09-15 23:22:00,67.0,63.0,29.83,WSW,239,0.0,0.0,88,0.00,,,0.00,,2013-09-16 05:22:00,
2013-09-15 23:44:00,66.0,62.0,29.83,WSW,239,0.0,1.0,88,0.00,,,0.00,,2013-09-16 05:44:00,
2013-09-15 23:53:00,66.0,63.0,29.83,SW,222,0.0,1.0,89,0.00,,,0.00,,2013-09-16 05:53:00,